| time (UTC) | temp C | wind direction | speed KPH | gust KPH | rain 1hr cm | rain 24hr cm | rain mn cm | humidity % | barometer mb |
| 20260504033013 | 12 | 212 | 8.0 | 9.7 | 0.00 | 0.00 | 0.00 | 47 | 1003.7 |
| 20260504031510 | 13 | 198 | 6.4 | 9.7 | 0.00 | 0.00 | 0.00 | 44 | 1004.0 |
| 20260504030008 | 13 | 217 | 1.6 | 6.4 | 0.00 | 0.00 | 0.00 | 43 | 1004.1 |
| 20260504024609 | 13 | 212 | 3.2 | 8.0 | 0.00 | 0.00 | 0.00 | 43 | 1004.1 |
| 20260504023053 | 15 | 202 | 0.0 | 4.8 | 0.00 | 0.00 | 0.00 | 39 | 1004.0 |
| 20260504021547 | 17 | 231 | 0.0 | 3.2 | 0.00 | 0.00 | 0.00 | 32 | 1003.9 |
| 20260504020046 | 17 | 260 | 0.0 | 1.6 | 0.00 | 0.00 | 0.00 | 32 | 1003.9 |
| 20260504014546 | 17 | 259 | 0.0 | 3.2 | 0.00 | 0.00 | 0.00 | 32 | 1003.8 |
| 20260504013044 | 17 | 306 | 0.0 | 3.2 | 0.00 | 0.00 | 0.00 | 32 | 1004.0 |
| 20260504011541 | 18 | 319 | 0.0 | 1.6 | 0.00 | 0.00 | 0.00 | 31 | 1004.0 |
| 20260504010039 | 19 | 319 | 0.0 | 4.8 | 0.00 | 0.00 | 0.00 | 30 | 1004.2 |
| 20260504004520 | 20 | 273 | 1.6 | 6.4 | 0.00 | 0.00 | 0.00 | 28 | 1004.3 |
| 20260504003025 | 21 | 309 | 3.2 | 8.0 | 0.00 | 0.00 | 0.00 | 26 | 1004.4 |
| 20260504001600 | 22 | 281 | 4.8 | 12.9 | 0.00 | 0.00 | 0.00 | 26 | 1004.4 |
| 20260504000138 | 22 | 343 | 6.4 | 14.5 | 0.00 | 0.00 | 0.00 | 26 | 1004.5 |
| 20260503234552 | 22 | 295 | 4.8 | 14.5 | 0.00 | 0.00 | 0.00 | 25 | 1004.6 |
| 20260503233042 | 22 | 326 | 6.4 | 17.7 | 0.00 | 0.00 | 0.00 | 25 | 1004.6 |
| 20260503231541 | 22 | 304 | 4.8 | 16.1 | 0.00 | 0.00 | 0.00 | 26 | 1004.7 |
| 20260503230039 | 22 | 292 | 4.8 | 16.1 | 0.00 | 0.00 | 0.00 | 26 | 1004.7 |
| 20260503224539 | 22 | 228 | 3.2 | 22.5 | 0.00 | 0.00 | 0.00 | 28 | 1004.7 |
| 20260503223040 | 22 | 317 | 6.4 | 20.9 | 0.00 | 0.00 | 0.00 | 26 | 1004.8 |
| 20260503221548 | 22 | 330 | 6.4 | 19.3 | 0.00 | 0.00 | 0.00 | 26 | 1004.8 |
| 20260503220034 | 22 | 295 | 6.4 | 24.1 | 0.00 | 0.00 | 0.00 | 28 | 1004.8 |
| 20260503214536 | 22 | 269 | 3.2 | 12.9 | 0.00 | 0.00 | 0.00 | 29 | 1004.9 |
| 20260503213015 | 22 | 302 | 6.4 | 24.1 | 0.00 | 0.00 | 0.00 | 30 | 1005.1 |
| 20260503211515 | 22 | 289 | 9.7 | 24.1 | 0.00 | 0.00 | 0.00 | 30 | 1005.2 |
| 20260503210051 | 21 | 21 | 16.1 | 29.0 | 0.00 | 0.00 | 0.00 | 29 | 1005.5 |
| 20260503204551 | 21 | 313 | 8.0 | 32.2 | 0.00 | 0.00 | 0.00 | 31 | 1005.7 |
| 20260503203041 | 21 | 304 | 9.7 | 30.6 | 0.00 | 0.00 | 0.00 | 32 | 1005.7 |
| 20260503201534 | 21 | 317 | 6.4 | 24.1 | 0.00 | 0.00 | 0.00 | 32 | 1005.7 |
| 20260503200011 | 21 | 314 | 12.9 | 32.2 | 0.00 | 0.00 | 0.00 | 31 | 1006.0 |
| 20260503194513 | 21 | 311 | 9.7 | 22.5 | 0.00 | 0.00 | 0.00 | 33 | 1005.9 |
| 20260503193056 | 21 | 16 | 9.7 | 27.4 | 0.00 | 0.00 | 0.00 | 32 | 1006.1 |
| 20260503191554 | 21 | 326 | 12.9 | 25.7 | 0.00 | 0.00 | 0.00 | 32 | 1006.2 |
| 20260503190053 | 21 | 360 | 9.7 | 30.6 | 0.00 | 0.00 | 0.00 | 31 | 1006.3 |
| 20260503184553 | 21 | 332 | 14.5 | 30.6 | 0.00 | 0.00 | 0.00 | 31 | 1006.3 |
| 20260503183051 | 21 | 321 | 11.3 | 32.2 | 0.00 | 0.00 | 0.00 | 32 | 1006.4 |
| 20260503181600 | 20 | 323 | 12.9 | 32.2 | 0.00 | 0.00 | 0.00 | 31 | 1006.5 |
| 20260503180047 | 20 | 302 | 9.7 | 30.6 | 0.00 | 0.00 | 0.00 | 35 | 1006.5 |
| 20260503174546 | 20 | 317 | 17.7 | 33.8 | 0.00 | 0.00 | 0.00 | 33 | 1006.7 |
| 20260503173040 | 20 | 315 | 11.3 | 29.0 | 0.00 | 0.00 | 0.00 | 35 | 1006.6 |
| 20260503171533 | 20 | 302 | 11.3 | 27.4 | 0.00 | 0.00 | 0.00 | 37 | 1006.7 |
| 20260503081534 | 12 | 160 | 27.4 | 41.8 | 0.00 | 0.00 | 0.00 | 50 | 1006.5 |
| 20260503071555 | 13 | 167 | 20.9 | 40.2 | 0.00 | 0.00 | 0.00 | 47 | 1008.6 |
| 20260503060104 | 14 | 169 | 14.5 | 22.5 | 0.00 | 0.00 | 0.00 | 42 | 1009.3 |
| 20260503054547 | 14 | 183 | 8.0 | 19.3 | 0.00 | 0.00 | 0.00 | 44 | 1009.3 |
| 20260503053027 | 14 | 220 | 24.1 | 37.0 | 0.00 | 0.00 | 0.00 | 43 | 1009.6 |
| 20260503051528 | 14 | 202 | 17.7 | 29.0 | 0.00 | 0.00 | 0.00 | 41 | 1009.4 |
| 20260503050008 | 15 | 174 | 17.7 | 29.0 | 0.00 | 0.00 | 0.00 | 41 | 1009.0 |
| 20260503044505 | 14 | 215 | 22.5 | 32.2 | 0.00 | 0.00 | 0.00 | 41 | 1009.5 |
| 20260503043054 | 14 | 203 | 14.5 | 22.5 | 0.00 | 0.00 | 0.00 | 42 | 1009.8 |
| 20260503041544 | 15 | 188 | 16.1 | 24.1 | 0.00 | 0.00 | 0.00 | 41 | 1010.1 |
| 20260503040034 | 15 | 196 | 14.5 | 20.9 | 0.00 | 0.00 | 0.00 | 42 | 1010.2 |
| 20260503034531 | 15 | 203 | 14.5 | 22.5 | 0.00 | 0.00 | 0.00 | 41 | 1010.2 |